sat.trackr.live / text

‹ back to catalog

STARLINK-36994

NORAD 67997 · 2026-039M

PAYLOAD ACTIVE UNKNOWN

§ Identity

Operator
Country
US
Launch date
2026-02-27
Launch site
AFETR
Launch vehicle
Mass (kg)
RCS (m²)

Purposes: comms

External: N2YO · Heavens-Above · Gunter

§ Orbital elements

Epoch: 2026-09-19T09:43:12.717984Z

Period
94.27 min
Inclination
43.0030°
Eccentricity
0.0003619
Mean motion
15.27587913 rev/d
Perigee alt
480.5 km
Apogee alt
485.5 km
Semi-major
6,861.2 km
B*
6.4713e-4
RAAN
34.5868°
Arg perigee
288.3081°
Mean anomaly
71.7377°
Rev number
3,133

§ Raw data

STARLINK-369941 67997U 26039M   26262.40500831  .00017594  00000+0  64713-3 0  99962 67997  43.0030  34.5868 0003619 288.3081  71.7377 15.27587913 31333

JSON: /api/v1/satellites/67997 · /tle

For live sub-satellite position, see the globe view (requires WebGL).

§ Visibility from observer

Set your observer location to see the next 7 days of passes ≥ 10°. The values pass through the URL so the page stays shareable.

No JS? Fill the form by hand. The geolocation button needs JavaScript.